Tracking 29892 objects as of 21-Nov-2024
HD Live streaming from Space Station
objects crossing your sky now

SL-8 R/B

Track SL-8 R/B now!
10-day predictions


NORAD ID: 7284
Int'l Code: 1974-028B
Perigee: 1,370.2 km
Apogee: 1,395.5 km
Inclination: 74.0 °
Period: 113.2 minutes
Semi major axis: 7753 km
RCS: 5.3325 m2 (large)
Launch date: April 29, 1974
Source: Commonwealth of Independent States (former USSR) (CIS)
Launch site: PLESETSK MISSILE AND SPACE COMPLEX (PKMTR)

Note: This is a ROCKET BODY
Your satellite tracking list
Your tracking list is empty




NASA's NSSDC Master Catalog

Two Line Element Set (TLE):
1 07284U 74028B   24325.57119028  .00000052  00000-0  33730-3 0  9997
2 07284  74.0378 167.5627 0016334 116.2475 272.4125 12.71535893346908
Source of the keplerian elements: AFSPC